CW6122 Weather Reports


Display with metric or nautical units.
time (UTC)temp
F
wind
direction
speed
MPH
gust
MPH
rain 1hr
in
rain 24hr
in
rain mn
in
humidity
%
barometer
mb
20180524000832 54 348 6.0 11.0 0.00 0.00 0.00 52 1006.7
20180524000321 54 326 8.0 12.0 0.00 0.00 0.00 50 1006.7
20180523235823 54 339 9.0 12.0 0.00 0.00 0.00 52 1006.8
20180523235331 54 315 5.0 9.0 0.00 0.00 0.00 50 1006.8
20180523234817 53 348 5.0 11.0 0.00 0.00 0.00 52 1006.9
20180523234325 54 33 8.0 11.0 0.00 0.00 0.00 50 1007.0
20180523233831 54 23 4.0 9.0 0.00 0.00 0.00 53 1007.0
20180523233316 54 333 3.0 9.0 0.00 0.00 0.00 55 1007.0
20180523232853 53 29 6.0 10.0 0.00 0.00 0.00 52 1007.1
20180523232318 53 354 7.0 12.0 0.00 0.00 0.00 53 1007.1
20180523231826 53 357 9.0 12.0 0.00 0.00 0.00 51 1007.2
20180523231333 53 20 6.0 11.0 0.00 0.00 0.00 50 1007.3
20180523230821 53 358 6.0 11.0 0.00 0.00 0.00 51 1007.3
20180523230325 53 18 8.0 11.0 0.00 0.00 0.00 52 1007.4
20180523225826 52 360 6.0 11.0 0.00 0.00 0.00 53 1007.4
20180523225320 53 17 8.0 12.0 0.00 0.00 0.00 51 1007.4
20180523224827 52 49 4.0 11.0 0.00 0.00 0.00 54 1007.5
20180523224335 52 357 5.0 11.0 0.00 0.00 0.00 51 1007.6
20180523223824 53 39 5.0 11.0 0.00 0.00 0.00 51 1007.6
20180523223332 53 333 3.0 6.0 0.00 0.00 0.00 52 1007.6
20180523222820 53 5 4.0 16.0 0.00 0.00 0.00 52 1007.6
20180523221827 53 352 5.0 9.0 0.00 0.00 0.00 52 1007.7
20180523221317 52 331 7.0 9.0 0.00 0.00 0.00 53 1007.8
20180523220826 52 336 6.0 8.0 0.00 0.00 0.00 52 1007.8
20180523220331 53 346 3.0 6.0 0.00 0.00 0.00 54 1007.8
20180523215829 53 305 3.0 8.0 0.00 0.00 0.00 53 1007.9
20180523215316 52 296 6.0 9.0 0.00 0.00 0.00 54 1007.9
20180523214818 52 326 7.0 9.0 0.00 0.00 0.00 54 1008.0
20180523214326 52 315 4.0 6.0 0.00 0.00 0.00 54 1008.0
20180523213836 52 319 4.0 5.0 0.00 0.00 0.00 53 1008.1
20180523213324 52 268 2.0 5.0 0.00 0.00 0.00 57 1008.2
20180523212833 51 234 3.0 5.0 0.00 0.00 0.00 53 1008.2
20180523212322 50 238 2.0 3.0 0.00 0.00 0.00 54 1008.3
20180523211831 51 66 0.0 3.0 0.00 0.00 0.00 52 1008.3
20180523211319 51 91 2.0 10.0 0.00 0.00 0.00 54 1008.3
20180523210824 50 143 5.0 10.0 0.00 0.00 0.00 54 1008.4
20180523210334 51 92 4.0 8.0 0.00 0.00 0.00 54 1008.4
20180523205831 51 142 3.0 5.0 0.00 0.00 0.00 53 1008.4
20180523205340 51 79 2.0 12.0 0.00 0.00 0.00 59 1008.5
20180523204832 51 79 4.0 12.0 0.00 0.00 0.00 54 1008.5
20180523204319 51 97 6.0 12.0 0.00 0.00 0.00 52 1008.5
20180523203827 52 142 7.0 12.0 0.00 0.00 0.00 50 1008.5
20180523203317 52 130 6.0 12.0 0.00 0.00 0.00 49 1008.4
20180523202825 52 169 8.0 12.0 0.00 0.00 0.00 48 1008.5
20180523202334 52 161 6.0 12.0 0.00 0.00 0.00 51 1008.4
20180523201824 52 86 3.0 9.0 0.00 0.00 0.00 51 1008.4
20180523201329 51 80 5.0 15.0 0.00 0.00 0.00 52 1008.3
20180523200835 51 140 7.0 17.0 0.00 0.00 0.00 51 1008.3
20180523200322 51 111 9.0 17.0 0.00 0.00 0.00 50 1008.3
20180523195820 51 126 6.0 12.0 0.00 0.00 0.00 51 1008.3
20180523195331 51 116 6.0 14.0 0.00 0.00 0.00 52 1008.3
20180523194819 51 94 8.0 14.0 0.00 0.00 0.00 49 1008.3
20180523194328 51 123 5.0 11.0 0.00 0.00 0.00 53 1008.3
20180523193830 51 166 8.0 11.0 0.00 0.00 0.00 51 1008.3
20180523193319 51 130 7.0 11.0 0.00 0.00 0.00 51 1008.3
20180523192824 51 82 3.0 15.0 0.00 0.00 0.00 52 1008.3
20180523192328 51 136 8.0 15.0 0.00 0.00 0.00 51 1008.3
20180523191819 51 96 5.0 10.0 0.00 0.00 0.00 52 1008.3
20180523191327 51 84 6.0 11.0 0.00 0.00 0.00 52 1008.4
20180523190816 51 114 6.0 12.0 0.00 0.00 0.00 52 1008.5
20180523190323 51 105 6.0 13.0 0.00 0.00 0.00 54 1008.5
20180523185820 51 101 5.0 14.0 0.00 0.00 0.00 52 1008.5
20180523185327 50 99 8.0 12.0 0.00 0.00 0.00 53 1008.5
20180523184833 50 89 5.0 10.0 0.00 0.00 0.00 53 1008.5
20180523184321 50 97 4.0 9.0 0.00 0.00 0.00 55 1008.5
20180523183828 50 105 4.0 10.0 0.00 0.00 0.00 56 1008.5
20180523183335 50 124 7.0 10.0 0.00 0.00 0.00 53 1008.6
20180523182822 50 103 6.0 11.0 0.00 0.00 0.00 54 1008.6
20180523182328 50 87 5.0 12.0 0.00 0.00 0.00 57 1008.6
20180523181816 50 99 7.0 12.0 0.00 0.00 0.00 53 1008.6
20180523181322 50 106 7.0 11.0 0.00 0.00 0.00 54 1008.6
20180523180830 50 106 7.0 11.0 0.00 0.00 0.00 54 1008.7
20180523180321 50 142 5.0 11.0 0.00 0.00 0.00 55 1008.7
20180523175830 50 69 6.0 11.0 0.00 0.00 0.00 55 1008.7
20180523175334 50 105 3.0 11.0 0.00 0.00 0.00 57 1008.7
20180523174825 49 129 4.0 7.0 0.00 0.00 0.00 56 1008.7
20180523174334 49 38 2.0 6.0 0.00 0.00 0.00 58 1008.7
20180523173821 49 88 3.0 8.0 0.00 0.00 0.00 57 1008.8
20180523173328 49 111 4.0 8.0 0.00 0.00 0.00 57 1008.7
20180523172835 49 108 4.0 8.0 0.00 0.00 0.00 59 1008.8
20180523172324 49 66 5.0 8.0 0.00 0.00 0.00 57 1008.8
20180523171829 49 59 4.0 8.0 0.00 0.00 0.00 61 1008.8
20180523171317 49 86 2.0 10.0 0.00 0.00 0.00 61 1008.8
20180523170823 49 30 5.0 9.0 0.00 0.00 0.00 63 1008.9
20180523170331 49 10 5.0 10.0 0.00 0.00 0.00 61 1008.9
20180523165831 49 36 6.0 10.0 0.00 0.00 0.00 58 1008.8
20180523165323 48 101 6.0 10.0 0.00 0.00 0.00 60 1008.9
20180523164829 48 10 4.0 8.0 0.00 0.00 0.00 65 1008.8
20180523164319 48 49 5.0 8.0 0.00 0.00 0.00 62 1008.8
20180523163825 48 24 3.0 9.0 0.00 0.00 0.00 63 1008.8
20180523163332 48 42 3.0 12.0 0.00 0.00 0.00 65 1008.8
20180523162842 48 31 5.0 12.0 0.00 0.00 0.00 66 1008.8
20180523162351 48 36 7.0 14.0 0.00 0.00 0.00 67 1008.8
20180523161832 48 10 8.0 14.0 0.00 0.00 0.00 62 1008.8
20180523161322 47 46 7.0 9.0 0.00 0.00 0.00 63 1008.8
20180523160831 47 355 6.0 9.0 0.00 0.00 0.00 65 1008.7
20180523160318 47 51 5.0 8.0 0.00 0.00 0.00 65 1008.8
20180523155833 47 29 4.0 8.0 0.00 0.00 0.00 63 1008.8
20180523155341 47 82 4.0 7.0 0.00 0.00 0.00 65 1008.8
20180523154954 47 85 4.0 8.0 0.00 0.00 0.00 66 1008.8
20180523154334 46 11 5.0 7.0 0.00 0.00 0.00 66 1008.9
20180523153823 46 93 3.0 5.0 0.00 0.00 0.00 67 1008.9
20180523153331 46 53 1.0 7.0 0.00 0.00 0.00 67 1008.8
20180523152820 46 67 3.0 9.0 0.00 0.00 0.00 67 1008.9
20180523151834 46 43 4.0 8.0 0.00 0.00 0.00 65 1008.8
20180523151317 46 66 4.0 9.0 0.00 0.00 0.00 64 1008.8
20180523150824 46 76 5.0 9.0 0.00 0.00 0.00 64 1008.8
20180523150330 46 88 6.0 10.0 0.00 0.00 0.00 64 1008.9
20180523145826 46 114 6.0 10.0 0.00 0.00 0.00 63 1008.8
20180523145316 46 84 5.0 10.0 0.00 0.00 0.00 64 1008.8
20180523144824 46 115 3.0 9.0 0.00 0.00 0.00 65 1008.8
20180523144321 46 99 3.0 8.0 0.00 0.00 0.00 65 1008.8
20180523143829 46 91 5.0 9.0 0.00 0.00 0.00 65 1008.8
20180523143317 46 99 6.0 9.0 0.00 0.00 0.00 64 1008.8
20180523142827 46 75 5.0 9.0 0.00 0.00 0.00 64 1008.8
20180523142329 46 47 4.0 8.0 0.00 0.00 0.00 65 1008.8
20180523141816 46 50 4.0 8.0 0.00 0.00 0.00 65 1008.8
20180523141316 46 103 5.0 8.0 0.00 0.00 0.00 65 1008.8
20180523140824 46 86 4.0 9.0 0.00 0.00 0.00 67 1008.8
20180523140333 46 50 6.0 9.0 0.00 0.00 0.00 66 1008.9
20180523135830 46 97 3.0 7.0 0.00 0.00 0.00 67 1008.9
20180523135317 46 32 3.0 5.0 0.00 0.00 0.00 67 1008.9
20180523134825 45 65 3.0 5.0 0.00 0.00 0.00 68 1008.9
20180523133819 45 49 3.0 5.0 0.00 0.00 0.00 70 1008.9
20180523133326 45 52 2.0 5.0 0.00 0.00 0.00 70 1008.9
20180523132833 45 52 3.0 5.0 0.00 0.00 0.00 69 1008.9
20180523132319 45 53 2.0 4.0 0.00 0.00 0.00 70 1008.9
20180523131827 45 24 2.0 5.0 0.00 0.00 0.00 70 1009.0
20180523131336 45 7 3.0 5.0 0.00 0.00 0.00 70 1009.0
20180523130827 45 19 4.0 5.0 0.00 0.00 0.00 72 1009.0
20180523130331 45 14 3.0 6.0 0.00 0.00 0.00 73 1009.0
20180523125828 45 19 3.0 7.0 0.00 0.00 0.00 71 1009.0
20180523125333 46 46 4.0 7.0 0.00 0.00 0.00 68 1009.0
20180523124818 46 17 4.0 5.0 0.00 0.00 0.00 66 1009.0
20180523124324 46 35 4.0 6.0 0.00 0.00 0.00 66 1009.1
20180523123819 46 51 4.0 6.0 0.00 0.00 0.00 65 1009.0
20180523123327 46 61 4.0 6.0 0.00 0.00 0.00 64 1009.0
20180523122833 46 84 4.0 6.0 0.00 0.00 0.00 63 1009.0
20180523122323 46 62 4.0 6.0 0.00 0.00 0.00 64 1009.0
20180523121830 46 77 3.0 8.0 0.00 0.00 0.00 64 1009.0
20180523121318 46 85 4.0 8.0 0.00 0.00 0.00 64 1009.0
20180523120826 46 86 4.0 9.0 0.00 0.00 0.00 64 1009.0
20180523120317 47 84 4.0 9.0 0.00 0.00 0.00 63 1008.9
20180523115833 47 94 4.0 10.0 0.00 0.00 0.00 63 1008.9
20180523115323 47 78 6.0 10.0 0.00 0.00 0.00 63 1008.9
20180523114828 47 88 4.0 9.0 0.00 0.00 0.00 62 1008.9
20180523114335 47 96 4.0 9.0 0.00 0.00 0.00 62 1008.8
20180523113821 47 84 4.0 11.0 0.00 0.00 0.00 62 1008.8
20180523113330 47 114 4.0 11.0 0.00 0.00 0.00 62 1008.7
20180523112833 47 83 3.0 10.0 0.00 0.00 0.00 62 1008.7
20180523112323 47 144 4.0 8.0 0.00 0.00 0.00 62 1008.6
20180523111825 47 128 5.0 9.0 0.00 0.00 0.00 62 1008.6
20180523111329 47 92 4.0 10.0 0.00 0.00 0.00 62 1008.6
20180523110832 47 148 4.0 10.0 0.00 0.00 0.00 61 1008.6
20180523110317 47 77 7.0 12.0 0.00 0.00 0.00 61 1008.5
20180523105841 47 152 6.0 14.0 0.00 0.00 0.00 61 1008.4
20180523105338 47 105 8.0 14.0 0.00 0.00 0.00 61 1008.5
20180523104830 47 94 6.0 10.0 0.00 0.00 0.00 61 1008.4
20180523104316 47 120 5.0 12.0 0.00 0.00 0.00 62 1008.4
20180523103824 47 94 7.0 12.0 0.00 0.00 0.00 62 1008.4
20180523103333 47 99 7.0 12.0 0.00 0.00 0.00 62 1008.4
20180523102834 47 113 6.0 11.0 0.00 0.00 0.00 61 1008.3
20180523102335 47 128 6.0 12.0 0.00 0.00 0.00 61 1008.2
20180523101819 48 119 8.0 12.0 0.00 0.00 0.00 60 1008.2
20180523101329 48 110 8.0 13.0 0.00 0.00 0.00 60 1008.1
20180523100835 48 92 9.0 13.0 0.00 0.00 0.00 60 1008.1
20180523100323 48 101 5.0 12.0 0.00 0.00 0.00 61 1008.0
20180523095820 48 101 6.0 12.0 0.00 0.00 0.00 61 1008.2
20180523095328 48 82 6.0 14.0 0.00 0.00 0.00 61 1008.1
20180523094816 48 88 6.0 14.0 0.00 0.00 0.00 60 1008.0
20180523094322 48 84 5.0 16.0 0.00 0.00 0.00 60 1008.0
20180523093830 48 115 8.0 16.0 0.00 0.00 0.00 59 1007.9
20180523092817 48 97 6.0 15.0 0.00 0.00 0.00 59 1007.8
20180523092324 48 58 8.0 19.0 0.00 0.00 0.00 58 1007.7
20180523091332 48 113 11.0 17.0 0.00 0.00 0.00 58 1007.6
20180523090840 49 115 6.0 17.0 0.00 0.00 0.00 58 1007.6
20180523090348 49 94 8.0 17.0 0.00 0.00 0.00 57 1007.5
20180523085831 49 109 6.0 17.0 0.00 0.00 0.00 57 1007.5
20180523085317 49 94 6.0 13.0 0.00 0.00 0.00 56 1007.5
20180523084825 49 113 8.0 15.0 0.00 0.00 0.00 56 1007.4
20180523084332 49 125 7.0 15.0 0.00 0.00 0.00 57 1007.4
20180523083818 49 117 5.0 15.0 0.00 0.00 0.00 56 1007.4
20180523083327 49 99 7.0 15.0 0.00 0.00 0.00 56 1007.4
20180523082821 49 117 6.0 10.0 0.00 0.00 0.00 57 1007.3
20180523082325 49 95 5.0 11.0 0.00 0.00 0.00 57 1007.3
20180523081833 49 50 6.0 11.0 0.00 0.00 0.00 57 1007.2
20180523081320 49 46 5.0 9.0 0.00 0.00 0.00 57 1007.1
20180523080824 49 65 4.0 7.0 0.00 0.00 0.00 56 1007.1
20180523080331 49 45 3.0 7.0 0.00 0.00 0.00 56 1007.1
20180523075829 50 59 4.0 11.0 0.00 0.00 0.00 55 1007.1
20180523075319 50 32 4.0 12.0 0.00 0.00 0.00 54 1007.0
20180523074823 50 37 4.0 12.0 0.00 0.00 0.00 54 1007.0
20180523074328 50 84 5.0 8.0 0.00 0.00 0.00 55 1007.0
20180523073817 50 74 4.0 8.0 0.00 0.00 0.00 55 1006.9
20180523073322 50 96 5.0 8.0 0.00 0.00 0.00 55 1007.0
20180523072830 50 82 6.0 8.0 0.00 0.00 0.00 54 1006.9
20180523072318 50 121 4.0 12.0 0.00 0.00 0.00 55 1007.0
20180523071823 50 101 5.0 12.0 0.00 0.00 0.00 54 1007.0
20180523071331 50 90 5.0 8.0 0.00 0.00 0.00 55 1007.0
20180523070822 50 116 3.0 8.0 0.00 0.00 0.00 54 1007.0
20180523070330 50 115 4.0 9.0 0.00 0.00 0.00 53 1007.0
20180523065828 50 59 3.0 18.0 0.00 0.00 0.00 53 1007.0
20180523065316 50 80 9.0 18.0 0.00 0.00 0.00 52 1006.9
20180523064825 50 93 9.0 15.0 0.00 0.00 0.00 52 1007.0
20180523064332 50 92 7.0 11.0 0.00 0.00 0.00 52 1007.0
20180523063328 50 80 7.0 13.0 0.00 0.00 0.00 52 1006.9
20180523062816 50 99 8.0 12.0 0.00 0.00 0.00 52 1006.8
20180523062325 50 140 7.0 12.0 0.00 0.00 0.00 52 1006.8
20180523061833 50 88 7.0 12.0 0.00 0.00 0.00 52 1006.8
20180523061321 51 99 4.0 15.0 0.00 0.00 0.00 51 1006.6
20180523060828 51 126 8.0 15.0 0.00 0.00 0.00 51 1006.6
20180523060336 51 134 8.0 13.0 0.00 0.00 0.00 50 1006.6
20180523055833 51 147 5.0 16.0 0.00 0.00 0.00 50 1006.6
20180523055320 51 119 8.0 16.0 0.00 0.00 0.00 50 1006.6
20180523054828 51 155 9.0 17.0 0.00 0.00 0.00 49 1006.6
20180523054333 52 116 9.0 18.0 0.00 0.00 0.00 49 1006.5
20180523053821 52 130 10.0 18.0 0.00 0.00 0.00 49 1006.5
20180523053329 52 128 8.0 16.0 0.00 0.00 0.00 48 1006.4
20180523052816 52 129 7.0 18.0 0.00 0.00 0.00 48 1006.4
20180523052324 52 119 10.0 16.0 0.00 0.00 0.00 48 1006.4
20180523051829 52 102 7.0 15.0 0.00 0.00 0.00 49 1006.4
20180523051316 52 136 7.0 16.0 0.00 0.00 0.00 49 1006.4
20180523050823 52 109 9.0 18.0 0.00 0.00 0.00 49 1006.3
20180523050333 53 80 8.0 20.0 0.00 0.00 0.00 48 1006.2
20180523045832 53 116 8.0 20.0 0.00 0.00 0.00 48 1006.3
20180523045321 53 107 11.0 17.0 0.00 0.00 0.00 48 1006.2
20180523044833 53 140 8.0 16.0 0.00 0.00 0.00 48 1006.2
20180523044321 53 157 8.0 18.0 0.00 0.00 0.00 48 1006.2
20180523043828 53 105 10.0 18.0 0.00 0.00 0.00 47 1006.1
20180523043317 53 109 7.0 16.0 0.00 0.00 0.00 48 1006.1
20180523042825 53 155 9.0 16.0 0.00 0.00 0.00 47 1006.1
20180523042331 53 126 7.0 16.0 0.00 0.00 0.00 48 1006.0
20180523041841 53 182 7.0 12.0 0.00 0.00 0.00 48 1006.0
20180523041320 53 126 6.0 15.0 0.00 0.00 0.00 49 1005.9
20180523040825 53 165 10.0 15.0 0.00 0.00 0.00 48 1005.9
20180523040333 54 74 5.0 13.0 0.00 0.00 0.00 49 1005.9
20180523035830 54 118 5.0 13.0 0.00 0.00 0.00 49 1005.9
20180523035318 54 129 7.0 14.0 0.00 0.00 0.00 49 1005.9
20180523034828 54 122 7.0 14.0 0.00 0.00 0.00 49 1005.9
20180523031316 55 113 5.0 16.0 0.00 0.00 0.00 47 1005.4
20180523030823 55 99 8.0 16.0 0.00 0.00 0.00 46 1005.4
20180523030332 56 128 5.0 13.0 0.00 0.00 0.00 47 1005.3
20180523025829 56 117 4.0 11.0 0.00 0.00 0.00 46 1005.2
20180523025317 56 99 5.0 11.0 0.00 0.00 0.00 47 1005.3
20180523024823 56 91 4.0 10.0 0.00 0.00 0.00 47 1005.3
20180523024330 56 128 5.0 10.0 0.00 0.00 0.00 47 1005.3
20180523023817 55 212 5.0 8.0 0.00 0.00 0.00 51 1005.2
20180523023326 55 181 4.0 8.0 0.00 0.00 0.00 52 1005.2
20180523022834 55 209 4.0 10.0 0.00 0.00 0.00 54 1005.2
20180523022319 55 188 5.0 12.0 0.00 0.00 0.00 57 1005.0
20180523021828 55 203 8.0 13.0 0.00 0.00 0.00 56 1005.0
20180523021317 55 213 8.0 16.0 0.00 0.00 0.00 53 1004.9
20180523020820 56 196 9.0 16.0 0.00 0.00 0.00 50 1004.9
20180523020325 57 191 7.0 15.0 0.00 0.00 0.00 49 1004.8
20180523015821 57 159 10.0 16.0 0.00 0.00 0.00 43 1004.6
20180523015329 57 157 10.0 16.0 0.00 0.00 0.00 42 1004.5
20180523014816 57 113 7.0 16.0 0.00 0.00 0.00 43 1004.5
20180523014324 58 122 6.0 14.0 0.00 0.00 0.00 43 1004.4
20180523013831 58 138 7.0 18.0 0.00 0.00 0.00 42 1004.3
20180523013317 58 122 10.0 18.0 0.00 0.00 0.00 43 1004.2
20180523012826 58 115 7.0 16.0 0.00 0.00 0.00 42 1004.2
20180523012335 58 115 10.0 16.0 0.00 0.00 0.00 41 1004.1
20180523011825 58 104 7.0 18.0 0.00 0.00 0.00 43 1004.1
20180523011334 58 119 11.0 18.0 0.00 0.00 0.00 41 1004.0
20180523010822 59 125 11.0 16.0 0.00 0.00 0.00 41 1004.0
20180523010331 59 110 7.0 16.0 0.00 0.00 0.00 42 1004.0
20180523005334 59 84 7.0 13.0 0.00 0.00 0.00 41 1003.9
20180523004822 59 139 8.0 13.0 0.00 0.00 0.00 41 1003.9
20180523004330 59 143 7.0 12.0 0.00 0.00 0.00 42 1003.8
20180523003820 60 127 6.0 10.0 0.00 0.00 0.00 39 1003.8
20180523003329 59 131 4.0 9.0 0.00 0.00 0.00 42 1003.8
20180523002818 60 190 3.0 8.0 0.00 0.00 0.00 40 1003.8
20180523002328 60 205 0.0 4.0 0.00 0.00 0.00 40 1003.8
20180523001835 60 205 2.0 4.0 0.00 0.00 0.00 44 1003.7
20180523001325 59 205 1.0 5.0 0.00 0.00 0.00 40 1003.7